Regional Weather Roundup
Issued by NWS

Home | Current Version | Previous Version | Graphics & Text | Print | Product List | Glossary On
Versions: 1 2 3 4 5 6 7 8 9 10 11 12 13 14 15 16 17 18 19 20 21 22 23 24 25 26 27 28 29 30 31 32 33 34 35 36 37 38 39 40 41 42 43 44 45 46 47 48 49 50
000
ASUS43 KLOT 260708
RWRIL

ILLINOIS REGIONAL WEATHER ROUNDUP
NATIONAL WEATHER SERVICE CHICAGO/ROMEOVILLE IL
200 AM CDT FRI AUG 26 2016

NOTE: "FAIR" INDICATES FEW OR NO CLOUDS BELOW 12,000 FEET WITH NO
SIGNIFICANT WEATHER AND/OR OBSTRUCTIONS TO VISIBILITY.

* THESE STATIONS ARE NOT UNDER NWS QUALITY CONTROL. THEY ALSO MAY NOT
  REPORT WEATHER SUCH AS PRECIPITATION OR FOG.

ILZ001-002-007-009-015-016-024-260800-
NORTHWEST ILLINOIS

CITY           SKY/WX    TMP DP  RH WIND       PRES   REMARKS
MOLINE         FAIR      64  62  93 CALM      30.11S FOG
STERLING*      FAIR      63  62  97 CALM      30.12S
SAVANNA*       FAIR      63  63  99 CALM      30.12S FOG
$$

ILZ003-004-008-010-011-017-018-260800-
NORTH CENTRAL ILLINOIS

CITY           SKY/WX    TMP DP  RH WIND       PRES   REMARKS
ROCKFORD       FAIR      66  62  87 N3        30.12F
FREEPORT*      FAIR      62  60  95 CALM      30.14S
ROCHELLE*      FAIR      60  60  99 CALM      30.12S FOG
DE KALB*       FAIR      65  63  92 CALM      30.12S
$$

ILZ005-006-012>014-019>023-260800-
NORTHEAST ILLINOIS

CITY           SKY/WX    TMP DP  RH WIND       PRES   REMARKS
CHICAGO-OHARE  MOCLDY    68  63  84 NW7       30.10S
CHICAGO-MIDWAY CLOUDY    70  63  78 NW3       30.10R
AURORA         FAIR      63  62  97 CALM      30.12R
LANSING*       FAIR      67  67 100 CALM      30.11R
JOLIET*        FAIR      69  67  93 CALM      30.11R
WAUKEGAN       FAIR      65  62  90 NW3       30.10R
DUPAGE AIRPORT FAIR      65  61  87 CALM      30.10S
KANKAKEE*      FAIR      68  67  95 CALM      30.12R
WHEELING       FAIR      67  62  84 NW3       30.11R
MORRIS*        FAIR      66  64  94 CALM      30.10R
ROMEOVILLE*    FAIR      66  66 100 N5        30.11R
NORTHERLY ISL    N/A     70  62  76 W2          N/A
$$

LMZ740>746-260800-
SOUTHERN LAKE MICHIGAN

STATION/POSITION SKY/WX   TEMP    WIND        PRES    VSBY  WAVE
                          AIR SEA DIR/SP/G                  HT/PER
                          (F)     (DEG/KT/KT) (MB)    (MI)  (FT/S)
SOUTHERN BUOY              74 74  310/ 14/ 16 1018.0R         1/ 3
WILMETTE HARBOR            68 68  320/  4/  4   N/A           0
HARRISON CRIB              74     290/  7/  7   N/A
BURNHAM HARBOR             71     290/  2/  6   N/A
CALUMET HARBOR             71     250/  2/  3 1018.7R
BURNS HARBOR               72     240/  3/  4 1019.6R
MICHIGAN CITY              72     160/  2/  2   N/A
MICHIGAN CITY 6N           74 75  270/  4/  6   N/A           1
ST. JOSEPH                 74 75  290/  6/  8 1018.6R         1/ 3
$$

ILZ025>027-034>036-040-047-049-050-058-095>099-260800-
WEST-CENTRAL ILLINOIS

CITY           SKY/WX    TMP DP  RH WIND       PRES   REMARKS
QUINCY         MOCLDY    69  69 100 NE7       30.10S
GALESBURG*     FAIR      65  64  96 N3        30.11S
MACOMB*        MOCLDY    68  67  96 CALM      30.13R
JACKSONVILLE*  CLOUDY    73  71  94 NE6       30.09F
PITTSFIELD*    MOCLDY    72  71  98 NE5       30.10F
$$

ILZ028>032-037-038-041>044-048-051>054-059>061-260800-
CENTRAL ILLINOIS

CITY           SKY/WX    TMP DP  RH WIND       PRES   REMARKS
PONTIAC        FAIR      69  69  99 N3        30.12S
BLOOMINGTON    MOCLDY    70  67  90 NE6       30.12S
DECATUR        LGT RAIN  74  71  91 E3        30.09F
PEORIA         FAIR      70  68  93 CALM      30.11R
LACON*         FAIR      67  65  94 CALM      30.10S
LINCOLN*       TSTM      73  71  95 NE3       30.08F
SPRINGFIELD    MOCLDY    75  70  84 E5        30.09F
TAYLORVILLE    TSTM      73  72  96 NW6       30.08F
$$

ILZ033-039-045-046-055>057-062-063-260800-
EAST-CENTRAL ILLINOIS

CITY           SKY/WX    TMP DP  RH WIND       PRES   REMARKS
CHAMPAIGN      FAIR      72  69  90 E3        30.10S
RANTOUL*       MOCLDY    74  69  85 CALM      30.11S
MATTOON        FAIR      75  72  90 N7        30.09S
PARIS*         FAIR      73  73 100 CALM      30.11R
$$

ILZ079-100>102-260800-
SOUTHWEST ILLINOIS

CITY           SKY/WX    TMP DP  RH WIND       PRES   REMARKS
ALTON          FAIR      71  68  89 E5        30.07F
BELLEVILLE     FAIR      78  75  90 N3        30.06F HX  81
CAHOKIA*       FAIR      78  73  84 CALM      30.06F HX  81
SPARTA*        FAIR      78  73  84 S3        30.09S HX  80
$$

ILZ064>066-069>071-074>076-080>082-084>086-088>090-092>094-260800-
SOUTH-CENTRAL ILLINOIS

CITY           SKY/WX    TMP DP  RH WIND       PRES   REMARKS
CARBONDALE     FAIR      71  69  93 CALM      30.07F
CAIRO*         FAIR      73  73 100 CALM      30.07F FOG
EFFINGHAM*     FAIR      75  75 100 CALM      30.10F
MARION         FAIR      73  73 100 CALM      30.09F
MT. VERNON     FAIR      73  68  83 CALM      30.09F
CENTRALIA*     FAIR      74  74  97 CALM      30.08S
SALEM*         FAIR      76  72  87 CALM      30.08F
$$

ILZ067-068-072-073-078-083-087-091-260800-
SOUTHEAST ILLINOIS

CITY           SKY/WX    TMP DP  RH WIND       PRES   REMARKS
LAWRENCEVILLE  FAIR      74  73  97 CALM      30.09R
FLORA*         FAIR      78  74  87 SW6       30.08S HX  80
FAIRFIELD*     FAIR      73  72  99 CALM      30.07F
HARRISBURG*    FAIR      73  73 100 CALM      30.09S
ROBINSON*      FAIR      71  70  98 CALM      30.09S
CARMI*         FAIR      72  72  99 CALM      30.08S
$$

ABBREVIATIONS USED IN REMARKS
   TC - TEMPERATURE IN CELSIUS
  WCI - WIND CHILL INDEX
   HX - HEAT INDEX
  VSB - VISIBILITY
$$




USA.gov is the U.S. government's official web portal to all federal, state and local government web resources and services.